Saratoga-Weather Station Historical Data
Daily Summary for November 09, 2018 Units:  Metric    English   Both
Daily Weekly Monthly Yearly Custom
  High: Low: Average:
Temperature: 14 °C 4.9 °C 11.3 °C
Dew Point: 6.7 °C -2.3 °C 1.7 °C
Humidity: 66% 45% 52%
Wind Speed: 7.9km/h 0km/h 0.2km/h
Wind Gust: 12.9km/h - -
Wind- - WNW
Pressure: 1022.2 hPa 1016.1 hPa -
Precipitation: 16.76 mm    
Historical Graphs
 
 
Tabular Data for November 09, 2018
Time Temperature Dew Point Pressure Wind Wind Speed Wind Gust Humidity Rainfall Rate (Hourly) solar
00:03 12.9 °C 6.7 °C 1020.2 hPa Calm     66% 0 mm meteobridge W/m2
00:09 12.9 °C 6.7 °C 1020.2 hPa Calm     66% 0 mm meteobridge W/m2
00:14 12.9 °C 6.5 °C 1020.2 hPa Calm     65% 0 mm meteobridge W/m2
00:18 13 °C 6.6 °C 1020.2 hPa Calm     65% 0 mm meteobridge W/m2
00:24 12.9 °C 6.3 °C 1020.2 hPa Calm     64% 0 mm meteobridge W/m2
00:29 12.9 °C 6.3 °C 1020.2 hPa Calm     64% 0 mm meteobridge W/m2
00:30 12.9 °C 6 °C 1020.2 hPa Calm     63% 0 mm meteobridge W/m2
00:38 12.9 °C 6 °C 1020.2 hPa Calm     63% 0 mm meteobridge W/m2
00:44 12.9 °C 5.8 °C 1019.9 hPa Calm     62% 0 mm meteobridge W/m2
00:49 12.9 °C 5.8 °C 1019.9 hPa Calm     62% 0 mm meteobridge W/m2
00:54 12.9 °C 5.8 °C 1019.9 hPa Calm     62% 0 mm meteobridge W/m2
00:58 13 °C 5.9 °C 1019.5 hPa Calm     62% 0 mm meteobridge W/m2
01:03 13 °C 5.9 °C 1019.5 hPa Calm     62% 0 mm meteobridge W/m2
01:09 13 °C 6.1 °C 1019.5 hPa Calm     63% 0 mm meteobridge W/m2
01:14 13.1 °C 6.2 °C 1019.5 hPa Calm     63% 0 mm meteobridge W/m2
01:19 13.1 °C 6.2 °C 1019.5 hPa Calm     63% 0 mm meteobridge W/m2
01:24 13.1 °C 6.2 °C 1019.5 hPa Calm     63% 0 mm meteobridge W/m2
01:28 13.1 °C 6.2 °C 1019.5 hPa Calm     63% 0 mm meteobridge W/m2
01:33 13.1 °C 6.2 °C 1019.5 hPa Calm     63% 0 mm meteobridge W/m2
01:38 13.2 °C 6.3 °C 1019.2 hPa Calm     63% 0 mm meteobridge W/m2
01:44 13.3 °C 6.4 °C 1019.5 hPa Calm     63% 0 mm meteobridge W/m2
01:49 13.3 °C 6.2 °C 1019.5 hPa Calm     62% 0 mm meteobridge W/m2
01:53 13.4 °C 6.3 °C 1019.5 hPa Calm     62% 0 mm meteobridge W/m2
01:59 13.4 °C 6.3 °C 1019.2 hPa Calm     62% 0 mm meteobridge W/m2
02:04 13.6 °C 6.5 °C 1019.2 hPa Calm     62% 0 mm meteobridge W/m2
02:09 13.6 °C 6.5 °C 1019.2 hPa Calm     62% 0 mm meteobridge W/m2
02:14 13.7 °C 6.5 °C 1018.8 hPa Calm     62% 0 mm meteobridge W/m2
02:19 13.7 °C 6.5 °C 1018.8 hPa Calm     62% 0 mm meteobridge W/m2
02:24 13.8 °C 6.4 °C 1018.8 hPa Calm     61% 0 mm meteobridge W/m2
02:29 13.8 °C 6.4 °C 1018.8 hPa Calm     61% 0 mm meteobridge W/m2
02:34 13.8 °C 6.4 °C 1018.8 hPa Calm     61% 0 mm meteobridge W/m2
02:39 13.8 °C 6.4 °C 1018.8 hPa Calm     61% 0 mm meteobridge W/m2
02:44 13.9 °C 6.5 °C 1018.8 hPa Calm     61% 0 mm meteobridge W/m2
02:49 13.9 °C 6.5 °C 1018.8 hPa Calm     61% 0 mm meteobridge W/m2
02:54 13.9 °C 6.5 °C 1018.8 hPa Calm     61% 0 mm meteobridge W/m2
02:59 13.9 °C 6.5 °C 1018.8 hPa Calm     61% 0 mm meteobridge W/m2
03:04 13.9 °C 6.5 °C 1018.8 hPa Calm     61% 0 mm meteobridge W/m2
03:09 14 °C 6.4 °C 1018.8 hPa Calm     60% 0 mm meteobridge W/m2
03:14 13.9 °C 6 °C 1018.8 hPa Calm     59% 0 mm meteobridge W/m2
03:19 13.9 °C 6 °C 1018.8 hPa Calm     59% 0 mm meteobridge W/m2
03:23 13.9 °C 5.8 °C 1018.8 hPa Calm     58% 0 mm meteobridge W/m2
03:29 13.8 °C 5.7 °C 1018.8 hPa Calm     58% 0 mm meteobridge W/m2
03:34 13.8 °C 5.7 °C 1018.5 hPa Calm     58% 0 mm meteobridge W/m2
03:39 13.8 °C 5.7 °C 1018.5 hPa Calm     58% 0 mm meteobridge W/m2
03:43 13.8 °C 5.9 °C 1018.5 hPa Calm     59% 0 mm meteobridge W/m2
03:48 13.8 °C 6.2 °C 1018.5 hPa Calm     60% 0 mm meteobridge W/m2
03:54 13.8 °C 6.2 °C 1018.5 hPa Calm     60% 0 mm meteobridge W/m2
03:58 13.8 °C 6.4 °C 1018.5 hPa Calm     61% 0 mm meteobridge W/m2
04:02 13.8 °C 6.4 °C 1018.5 hPa Calm     61% 0 mm meteobridge W/m2
04:09 13.9 °C 6.5 °C 1018.5 hPa Calm     61% 0 mm meteobridge W/m2
04:13 13.8 °C 6.6 °C 1018.2 hPa Calm     62% 0 mm meteobridge W/m2
04:18 13.8 °C 6.4 °C 1018.2 hPa Calm     61% 0 mm meteobridge W/m2
04:24 13.7 °C 6.3 °C 1018.2 hPa Calm     61% 0 mm meteobridge W/m2
04:29 13.7 °C 6.3 °C 1018.2 hPa Calm     61% 0 mm meteobridge W/m2
04:33 13.7 °C 6.3 °C 1017.8 hPa Calm     61% 0 mm meteobridge W/m2
04:38 13.7 °C 6.3 °C 1018.2 hPa Calm     61% 0 mm meteobridge W/m2
04:44 13.6 °C 5.7 °C 1017.8 hPa Calm     59% 0.76 mm meteobridge W/m2
04:47 13.4 °C 5.3 °C 1017.8 hPa Calm     58% 1.02 mm meteobridge W/m2
04:54 13.2 °C 4.6 °C 1017.8 hPa Calm     56% 1.02 mm meteobridge W/m2
04:59 13.2 °C 4.4 °C 1017.8 hPa Calm     55% 1.02 mm meteobridge W/m2
05:02 13.1 °C 4 °C 1017.8 hPa Calm     54% 1.02 mm meteobridge W/m2
05:09 13 °C 3.6 °C 1017.8 hPa Calm     53% 1.02 mm meteobridge W/m2
05:13 12.9 °C 3.5 °C 1017.8 hPa Calm     53% 1.27 mm meteobridge W/m2
05:18 12.9 °C 3.5 °C 1017.8 hPa Calm     53% 1.52 mm meteobridge W/m2
05:24 12.8 °C 3.2 °C 1017.8 hPa Calm     52% 1.78 mm meteobridge W/m2
05:29 12.8 °C 3.2 °C 1017.8 hPa Calm     52% 2.03 mm meteobridge W/m2
05:34 12.8 °C 2.9 °C 1017.8 hPa Calm     51% 2.03 mm meteobridge W/m2
05:37 12.7 °C 2.8 °C 1017.8 hPa Calm     51% 2.03 mm meteobridge W/m2
05:48 12.7 °C 2.5 °C 1017.8 hPa Calm     50% 1.27 mm meteobridge W/m2
05:54 12.6 °C 2.4 °C 1017.5 hPa Calm     50% 1.78 mm meteobridge W/m2
05:59 12.6 °C 2.4 °C 1017.2 hPa Calm     50% 1.78 mm meteobridge W/m2
06:04 12.5 °C 2.4 °C 1017.2 hPa Calm     50% 1.78 mm meteobridge W/m2
06:08 12.4 °C 2.3 °C 1017.2 hPa Calm     50% 2.03 mm meteobridge W/m2
06:12 12.4 °C 2.3 °C 1017.2 hPa Calm     50% 2.03 mm meteobridge W/m2
06:19 12.4 °C 2.3 °C 1017.5 hPa Calm     50% 1.78 mm meteobridge W/m2
06:24 12.3 °C 2.2 °C 1017.2 hPa Calm     50% 3.05 mm meteobridge W/m2
06:27 12.3 °C 1.9 °C 1017.2 hPa Calm     49% 3.3 mm meteobridge W/m2
06:33 12.3 °C 1.9 °C 1017.2 hPa Calm     49% 3.05 mm meteobridge W/m2
06:39 12.3 °C 1.9 °C 1017.2 hPa Calm     49% 3.05 mm meteobridge W/m2
06:44 12.3 °C 1.9 °C 1016.8 hPa Calm     49% 3.05 mm meteobridge W/m2
06:48 12.3 °C 1.9 °C 1016.8 hPa Calm     49% 2.79 mm meteobridge W/m2
06:53 12.4 °C 1.7 °C 1016.8 hPa Calm     48% 2.29 mm meteobridge W/m2
07:04 12.4 °C 1.7 °C 1017.2 hPa Calm     48% 2.29 mm meteobridge W/m2
07:08 12.4 °C 1.7 °C 1017.2 hPa Calm     48% 2.03 mm meteobridge W/m2
07:14 12.4 °C 1.7 °C 1017.2 hPa Calm     48% 2.29 mm meteobridge W/m2
07:16 12.4 °C 1.7 °C 1017.2 hPa Calm     48% 2.29 mm meteobridge W/m2
07:24 12.3 °C 1.6 °C 1017.2 hPa Calm     48% 0.51 mm meteobridge W/m2
07:29 12.3 °C 1.6 °C 1017.2 hPa Calm     48% 0.25 mm meteobridge W/m2
07:34 12.3 °C 1.6 °C 1017.2 hPa Calm     48% 0.25 mm meteobridge W/m2
07:37 12.3 °C 1.6 °C 1017.2 hPa Calm     48% 0.25 mm meteobridge W/m2
07:42 12.3 °C 1.6 °C 1017.2 hPa Calm     48% 0.25 mm meteobridge W/m2
07:48 12.3 °C 1.6 °C 1016.8 hPa Calm     48% 0.25 mm meteobridge W/m2
07:54 12.3 °C 1.6 °C 1017.2 hPa Calm     48% 0.25 mm meteobridge W/m2
07:59 12.3 °C 1.6 °C 1017.5 hPa Calm     48% 0.25 mm meteobridge W/m2
08:04 12.3 °C 1.6 °C 1017.5 hPa Calm     48% 0.25 mm meteobridge W/m2
08:09 12.3 °C 1.6 °C 1017.8 hPa Calm     48% 1.02 mm meteobridge W/m2
08:14 12.3 °C 1.6 °C 1017.8 hPa Calm     48% 1.27 mm meteobridge W/m2
08:18 12.2 °C 1.5 °C 1017.8 hPa Calm     48% 1.78 mm meteobridge W/m2
08:23 12.2 °C 1.8 °C 1017.8 hPa Calm     49% 2.03 mm meteobridge W/m2
08:28 12.1 °C 1.4 °C 1017.8 hPa Calm     48% 2.03 mm meteobridge W/m2
08:34 12.1 °C 1.7 °C 1018.2 hPa Calm     49% 2.03 mm meteobridge W/m2
08:39 12.1 °C 1.4 °C 1017.8 hPa Calm     48% 2.29 mm meteobridge W/m2
08:44 12.1 °C 1.4 °C 1017.8 hPa Calm     48% 2.29 mm meteobridge W/m2
08:49 12.1 °C 1.4 °C 1018.2 hPa Calm     48% 2.29 mm meteobridge W/m2
08:53 12.1 °C 1.4 °C 1017.8 hPa Calm     48% 2.29 mm meteobridge W/m2
08:59 12.1 °C 1.4 °C 1017.8 hPa Calm     48% 2.29 mm meteobridge W/m2
09:04 12.1 °C 1.4 °C 1017.8 hPa Calm     48% 2.29 mm meteobridge W/m2
09:09 12.1 °C 1.4 °C 1017.8 hPa Calm     48% 1.78 mm meteobridge W/m2
09:14 12.1 °C 1.4 °C 1017.5 hPa Calm     48% 1.02 mm meteobridge W/m2
09:19 12 °C 1.3 °C 1017.5 hPa Calm     48% 0.51 mm meteobridge W/m2
09:23 12 °C 1.3 °C 1017.5 hPa Calm     48% 0.76 mm meteobridge W/m2
09:28 11.9 °C 1.2 °C 1017.5 hPa Calm     48% 0.76 mm meteobridge W/m2
09:34 11.9 °C 1.2 °C 1017.5 hPa Calm     48% 0.76 mm meteobridge W/m2
09:39 11.9 °C 1.2 °C 1017.8 hPa Calm     48% 0.51 mm meteobridge W/m2
09:44 11.9 °C 1.2 °C 1018.2 hPa Calm     48% 1.78 mm meteobridge W/m2
09:49 12.1 °C 1.4 °C 1018.8 hPa Calm     48% 3.3 mm meteobridge W/m2
09:53 12.2 °C 1.2 °C 1018.5 hPa Calm     47% 4.32 mm meteobridge W/m2
09:59 12.2 °C 1.2 °C 1018.2 hPa Calm     47% 5.84 mm meteobridge W/m2
10:04 12.2 °C 1.2 °C 1018.5 hPa Calm     47% 6.86 mm meteobridge W/m2
10:09 12.2 °C 1.2 °C 1018.5 hPa Calm     47% 7.11 mm meteobridge W/m2
10:13 12.1 °C 1.1 °C 1018.5 hPa Calm     47% 7.11 mm meteobridge W/m2
10:19 12 °C 1 °C 1018.5 hPa Calm     47% 7.62 mm meteobridge W/m2
10:23 12 °C 1 °C 1018.5 hPa Calm     47% 7.37 mm meteobridge W/m2
10:29 12 °C 1 °C 1018.8 hPa Calm     47% 7.11 mm meteobridge W/m2
10:34 12 °C 1 °C 1018.8 hPa Calm     47% 7.11 mm meteobridge W/m2
10:39 12.1 °C 1.1 °C 1018.5 hPa Calm     47% 7.11 mm meteobridge W/m2
10:43 12.1 °C 1.1 °C 1018.5 hPa Calm     47% 6.6 mm meteobridge W/m2
10:49 12.2 °C 1.2 °C 1018.2 hPa Calm     47% 4.57 mm meteobridge W/m2
10:54 12.3 °C 1.3 °C 1018.5 hPa Calm     47% 3.56 mm meteobridge W/m2
10:59 12.3 °C 1.3 °C 1018.2 hPa Calm     47% 2.03 mm meteobridge W/m2
11:04 12.4 °C 1.1 °C 1018.2 hPa Calm     46% 1.02 mm meteobridge W/m2
11:09 12.3 °C 1 °C 1018.2 hPa Calm     46% 0.76 mm meteobridge W/m2
11:13 12.4 °C 1.1 °C 1018.2 hPa Calm     46% 0.51 mm meteobridge W/m2
11:17 12.4 °C 1.1 °C 1017.8 hPa Calm     46% 0.51 mm meteobridge W/m2
11:24 12.4 °C 1.1 °C 1017.8 hPa Calm     46% 0.25 mm meteobridge W/m2
11:28 12.4 °C 1.1 °C 1017.8 hPa Calm     46% 0.25 mm meteobridge W/m2
11:33 12.4 °C 1.1 °C 1017.8 hPa Calm     46% 0.25 mm meteobridge W/m2
11:39 12.5 °C 1.2 °C 1018.2 hPa Calm     46% 0.25 mm meteobridge W/m2
11:44 12.6 °C 1.3 °C 1017.8 hPa Calm     46% 0 mm meteobridge W/m2
11:48 12.6 °C 1.3 °C 1017.8 hPa Calm     46% 0 mm meteobridge W/m2
11:54 12.6 °C 1.3 °C 1017.8 hPa Calm     46% 0 mm meteobridge W/m2
11:59 12.6 °C 1.3 °C 1017.5 hPa Calm     46% 0 mm meteobridge W/m2
12:04 12.7 °C 1.4 °C 1017.5 hPa Calm     46% 0 mm meteobridge W/m2
12:09 12.8 °C 1.5 °C 1017.5 hPa Calm     46% 0 mm meteobridge W/m2
12:12 12.8 °C 1.5 °C 1017.5 hPa Calm     46% 0 mm meteobridge W/m2
12:19 12.9 °C 1.6 °C 1017.5 hPa Calm     46% 0 mm meteobridge W/m2
12:24 12.8 °C 1.5 °C 1017.5 hPa Calm     46% 0 mm meteobridge W/m2
12:29 12.8 °C 1.5 °C 1017.2 hPa Calm     46% 0 mm meteobridge W/m2
12:34 12.9 °C 1.6 °C 1017.5 hPa Calm     46% 0 mm meteobridge W/m2
12:39 12.9 °C 1.6 °C 1017.5 hPa Calm     46% 0 mm meteobridge W/m2
12:43 12.9 °C 1.6 °C 1017.2 hPa Calm     46% 0 mm meteobridge W/m2
12:49 13 °C 1.3 °C 1017.2 hPa Calm     45% 0 mm meteobridge W/m2
12:54 13 °C 1.3 °C 1017.2 hPa Calm     45% 0 mm meteobridge W/m2
12:59 13.1 °C 1.4 °C 1017.2 hPa Calm     45% 0 mm meteobridge W/m2
13:04 13.1 °C 1.4 °C 1016.8 hPa Calm     45% 0 mm meteobridge W/m2
13:09 13.1 °C 1.4 °C 1016.8 hPa Calm     45% 0 mm meteobridge W/m2
13:14 13.1 °C 1.4 °C 1016.8 hPa Calm     45% 0 mm meteobridge W/m2
13:19 13.2 °C 1.5 °C 1016.5 hPa Calm     45% 0 mm meteobridge W/m2
13:24 13.2 °C 1.5 °C 1016.5 hPa Calm     45% 0 mm meteobridge W/m2
13:29 13.2 °C 1.5 °C 1016.5 hPa Calm     45% 0 mm meteobridge W/m2
13:34 13.2 °C 1.5 °C 1016.5 hPa Calm     45% 0 mm meteobridge W/m2
13:39 13.2 °C 1.5 °C 1016.1 hPa Calm     45% 0 mm meteobridge W/m2
13:44 13.2 °C 1.5 °C 1016.5 hPa Calm     45% 0 mm meteobridge W/m2
13:48 13.2 °C 1.5 °C 1016.8 hPa Calm     45% 0 mm meteobridge W/m2
13:53 13.2 °C 1.5 °C 1016.5 hPa Calm     45% 0 mm meteobridge W/m2
13:59 13.1 °C 1.4 °C 1016.5 hPa Calm     45% 0 mm meteobridge W/m2
14:04 13.1 °C 1.4 °C 1016.5 hPa Calm     45% 0 mm meteobridge W/m2
14:09 13.1 °C 1.4 °C 1016.5 hPa Calm     45% 0 mm meteobridge W/m2
14:12 13.2 °C 1.5 °C 1016.8 hPa Calm     45% 0 mm meteobridge W/m2
14:17 13.2 °C 1.5 °C 1016.8 hPa Calm     45% 0 mm meteobridge W/m2
14:23 13.2 °C 1.5 °C 1016.8 hPa Calm     45% 0 mm meteobridge W/m2
14:29 13.3 °C 1.6 °C 1016.8 hPa Calm     45% 0 mm meteobridge W/m2
14:34 13.4 °C 1.7 °C 1016.8 hPa Calm     45% 0 mm meteobridge W/m2
14:39 13.4 °C 1.7 °C 1016.8 hPa Calm     45% 0 mm meteobridge W/m2
14:43 13.4 °C 1.7 °C 1016.8 hPa Calm     45% 0 mm meteobridge W/m2
14:48 13.5 °C 1.8 °C 1016.8 hPa Calm     45% 0.25 mm meteobridge W/m2
14:54 13.5 °C 1.8 °C 1017.2 hPa Calm     45% 0.25 mm meteobridge W/m2
14:59 13.5 °C 1.8 °C 1016.8 hPa Calm     45% 0.25 mm meteobridge W/m2
15:04 13.5 °C 1.8 °C 1017.2 hPa Calm     45% 0.25 mm meteobridge W/m2
15:09 13.4 °C 1.7 °C 1017.2 hPa Calm     45% 0.25 mm meteobridge W/m2
15:13 13.4 °C 1.7 °C 1016.8 hPa Calm     45% 0.25 mm meteobridge W/m2
15:19 13.3 °C 1.6 °C 1016.8 hPa Calm     45% 0.25 mm meteobridge W/m2
15:24 13.3 °C 1.6 °C 1016.8 hPa Calm     45% 0.25 mm meteobridge W/m2
15:29 13.2 °C 1.5 °C 1017.2 hPa Calm     45% 0.25 mm meteobridge W/m2
15:34 13.2 °C 1.5 °C 1016.8 hPa Calm     45% 0.25 mm meteobridge W/m2
15:39 13.2 °C 1.5 °C 1017.2 hPa Calm     45% 0.25 mm meteobridge W/m2
15:44 13.1 °C 1.4 °C 1017.2 hPa Calm     45% 0.25 mm meteobridge W/m2
15:49 13.1 °C 1.4 °C 1016.8 hPa Calm     45% 0 mm meteobridge W/m2
15:52 13 °C 1.3 °C 1016.8 hPa Calm     45% 0 mm meteobridge W/m2
15:58 13 °C 1.3 °C 1016.8 hPa Calm     45% 0.25 mm meteobridge W/m2
16:04 13.1 °C 1.4 °C 1017.2 hPa Calm     45% 0.25 mm meteobridge W/m2
16:09 13.1 °C 1.4 °C 1017.2 hPa Calm     45% 0.25 mm meteobridge W/m2
16:14 13.1 °C 1.4 °C 1017.5 hPa Calm     45% 0.25 mm meteobridge W/m2
16:19 13.1 °C 1.4 °C 1017.5 hPa Calm     45% 0.25 mm meteobridge W/m2
16:24 13.1 °C 1.4 °C 1017.5 hPa Calm     45% 0.25 mm meteobridge W/m2
16:27 13.1 °C 1.4 °C 1017.5 hPa Calm     45% 0.51 mm meteobridge W/m2
16:34 13 °C 1.3 °C 1017.8 hPa Calm     45% 0.51 mm meteobridge W/m2
16:39 12.8 °C 1.2 °C 1017.8 hPa Calm     45% 0.51 mm meteobridge W/m2
16:43 12.5 °C 0.9 °C 1017.8 hPa Calm     45% 0.51 mm meteobridge W/m2
16:49 12.3 °C 1 °C 1018.2 hPa Calm     46% 0.51 mm meteobridge W/m2
16:54 12.2 °C 0.9 °C 1018.2 hPa Calm     46% 0.51 mm meteobridge W/m2
16:59 11.9 °C 0.6 °C 1018.5 hPa Calm     46% 0.25 mm meteobridge W/m2
17:04 11.7 °C 0.5 °C 1018.2 hPa Calm     46% 0.51 mm meteobridge W/m2
17:09 11.4 °C 0.5 °C 1018.2 hPa Calm     47% 0.51 mm meteobridge W/m2
17:13 11.3 °C 0.4 °C 1018.5 hPa Calm     47% 0.51 mm meteobridge W/m2
17:19 10.9 °C 0.3 °C 1018.2 hPa Calm     48% 0.51 mm meteobridge W/m2
17:23 10.8 °C 0.2 °C 1017.8 hPa Calm     48% 0.51 mm meteobridge W/m2
17:28 10.7 °C 0.1 °C 1018.2 hPa Calm     48% 0.25 mm meteobridge W/m2
17:34 10.5 °C -0.1 °C 1018.5 hPa Calm     48% 0.25 mm meteobridge W/m2
17:39 10.3 °C -0.2 °C 1018.5 hPa Calm     48% 0.25 mm meteobridge W/m2
17:44 10.2 °C -0.3 °C 1018.5 hPa Calm     48% 0.25 mm meteobridge W/m2
17:49 10.1 °C -0.4 °C 1018.2 hPa Calm     48% 0.25 mm meteobridge W/m2
17:54 10 °C -0.5 °C 1018.2 hPa Calm     48% 0.25 mm meteobridge W/m2
17:57 10 °C -0.5 °C 1018.5 hPa Calm     48% 0.25 mm meteobridge W/m2
18:04 9.9 °C -0.6 °C 1018.8 hPa Calm     48% 0.25 mm meteobridge W/m2
18:09 9.9 °C -0.6 °C 1018.8 hPa Calm     48% 0 mm meteobridge W/m2
18:13 9.9 °C -0.6 °C 1018.8 hPa Calm     48% 0 mm meteobridge W/m2
18:19 9.8 °C -0.7 °C 1018.8 hPa Calm     48% 0 mm meteobridge W/m2
18:24 9.8 °C -0.7 °C 1019.2 hPa Calm     48% 0 mm meteobridge W/m2
18:29 9.8 °C -0.7 °C 1019.2 hPa Calm     48% 0 mm meteobridge W/m2
18:34 9.7 °C -0.8 °C 1019.2 hPa Calm     48% 0 mm meteobridge W/m2
18:39 9.7 °C -0.8 °C 1018.8 hPa Calm     48% 0 mm meteobridge W/m2
18:44 9.7 °C -0.8 °C 1019.2 hPa Calm     48% 0 mm meteobridge W/m2
18:47 9.7 °C -0.8 °C 1019.2 hPa Calm     48% 0 mm meteobridge W/m2
18:54 9.6 °C -0.9 °C 1019.2 hPa Calm     48% 0 mm meteobridge W/m2
18:58 9.5 °C -0.7 °C 1019.5 hPa Calm     49% 0 mm meteobridge W/m2
19:04 9.4 °C -0.8 °C 1019.2 hPa Calm     49% 0 mm meteobridge W/m2
19:09 9.3 °C -0.9 °C 1019.2 hPa Calm     49% 0 mm meteobridge W/m2
19:14 9.2 °C -1 °C 1019.2 hPa Calm     49% 0 mm meteobridge W/m2
19:19 9.1 °C -1.1 °C 1019.2 hPa Calm     49% 0 mm meteobridge W/m2
19:24 9 °C -1.1 °C 1019.2 hPa Calm     49% 0 mm meteobridge W/m2
19:28 8.9 °C -1.2 °C 1019.5 hPa Calm     49% 0 mm meteobridge W/m2
19:32 8.8 °C -1.3 °C 1019.5 hPa Calm     49% 0 mm meteobridge W/m2
19:39 8.7 °C -1.1 °C 1019.9 hPa Calm     50% 0 mm meteobridge W/m2
19:44 8.5 °C -1.3 °C 1019.9 hPa Calm     50% 0 mm meteobridge W/m2
19:49 8.4 °C -1.4 °C 1020.2 hPa Calm     50% 0 mm meteobridge W/m2
19:54 8.3 °C -1.5 °C 1020.2 hPa Calm     50% 0 mm meteobridge W/m2
19:59 8.1 °C -1.4 °C 1020.2 hPa Calm   4.8 km/h 51% 0 mm meteobridge W/m2
20:03 8 °C -1.5 °C 1020.5 hPa Calm     51% 0 mm meteobridge W/m2
20:09 7.8 °C -1.7 °C 1020.5 hPa Calm   8 km/h 51% 0 mm meteobridge W/m2
20:13 7.8 °C -1.7 °C 1020.5 hPa Calm   1.6 km/h 51% 0 mm meteobridge W/m2
20:18 7.7 °C -1.8 °C 1020.5 hPa WSW 4.7 km/h 6.4 km/h 51% 0 mm meteobridge W/m2
20:24 7.6 °C -1.9 °C 1020.5 hPa Calm   6.4 km/h 51% 0.25 mm meteobridge W/m2
20:29 7.5 °C -1.7 °C 1020.5 hPa Calm   8 km/h 52% 0.25 mm meteobridge W/m2
20:33 7.4 °C -1.8 °C 1020.5 hPa Calm     52% 0.25 mm meteobridge W/m2
20:39 7.3 °C -1.9 °C 1020.5 hPa Calm   4.8 km/h 52% 0.25 mm meteobridge W/m2
20:44 7.2 °C -2 °C 1020.5 hPa Calm   6.4 km/h 52% 0.25 mm meteobridge W/m2
20:49 7 °C -1.9 °C 1020.5 hPa Calm   3.2 km/h 53% 0.25 mm meteobridge W/m2
20:54 6.8 °C -2.1 °C 1020.5 hPa Calm   1.6 km/h 53% 0.25 mm meteobridge W/m2
20:59 6.7 °C -2 °C 1020.9 hPa Calm   9.7 km/h 54% 0.25 mm meteobridge W/m2
21:04 6.6 °C -2 °C 1020.9 hPa Calm   12.9 km/h 54% 0.25 mm meteobridge W/m2
21:07 6.5 °C -2.1 °C 1020.9 hPa Calm   4.8 km/h 54% 0.25 mm meteobridge W/m2
21:13 6.4 °C -2 °C 1021.2 hPa Calm   8 km/h 55% 0.25 mm meteobridge W/m2
21:18 6.3 °C -2.1 °C 1021.2 hPa WNW 1.4 km/h 8 km/h 55% 0 mm meteobridge W/m2
21:24 6.2 °C -2.2 °C 1021.2 hPa Calm   6.4 km/h 55% 0 mm meteobridge W/m2
21:29 6.2 °C -2.2 °C 1021.6 hPa Calm   4.8 km/h 55% 0 mm meteobridge W/m2
21:34 6.2 °C -2.2 °C 1021.6 hPa Calm   4.8 km/h 55% 0 mm meteobridge W/m2
21:38 6.2 °C -2.2 °C 1021.6 hPa Calm   9.7 km/h 55% 0 mm meteobridge W/m2
21:41 6.1 °C -2.3 °C 1021.6 hPa Calm   9.7 km/h 55% 0 mm meteobridge W/m2
21:46 6.1 °C -2.3 °C 1021.6 hPa Calm   9.7 km/h 55% 0 mm meteobridge W/m2
21:54 5.9 °C -2.2 °C 1021.6 hPa NW 4.7 km/h 8 km/h 56% 0 mm meteobridge W/m2
21:58 5.9 °C -2.2 °C 1021.9 hPa NNW 7.9 km/h 8 km/h 56% 0 mm meteobridge W/m2
22:04 5.8 °C -2.1 °C 1021.9 hPa West 6.4 km/h 9.7 km/h 57% 0 mm meteobridge W/m2
22:09 5.8 °C -2.1 °C 1021.9 hPa West 1.4 km/h 6.4 km/h 57% 0 mm meteobridge W/m2
22:14 5.7 °C -1.9 °C 1021.9 hPa Calm   1.6 km/h 58% 0 mm meteobridge W/m2
22:19 5.7 °C -1.9 °C 1021.9 hPa WNW 1.4 km/h 8 km/h 58% 0 mm meteobridge W/m2
22:23 5.7 °C -1.9 °C 1021.9 hPa Calm   4.8 km/h 58% 0 mm meteobridge W/m2
22:29 5.6 °C -1.8 °C 1021.9 hPa Calm   1.6 km/h 59% 0 mm meteobridge W/m2
22:34 5.6 °C -1.6 °C 1021.9 hPa Calm   8 km/h 60% 0 mm meteobridge W/m2
22:39 5.4 °C -1.3 °C 1021.9 hPa Calm   1.6 km/h 62% 0 mm meteobridge W/m2
22:44 5.3 °C -1.2 °C 1021.9 hPa Calm   6.4 km/h 63% 0 mm meteobridge W/m2
22:49 5.3 °C -1.2 °C 1021.9 hPa Calm   6.4 km/h 63% 0 mm meteobridge W/m2
22:52 5.3 °C -1.2 °C 1021.9 hPa WNW 1.4 km/h 1.6 km/h 63% 0 mm meteobridge W/m2
22:59 5.2 °C -1.1 °C 1021.9 hPa Calm     64% 0 mm meteobridge W/m2
23:03 5.2 °C -1.1 °C 1021.9 hPa Calm   1.6 km/h 64% 0 mm meteobridge W/m2
23:09 5.2 °C -1.3 °C 1021.9 hPa Calm     63% 0 mm meteobridge W/m2
23:14 5.2 °C -1.3 °C 1022.2 hPa WNW 1.4 km/h 1.6 km/h 63% 0 mm meteobridge W/m2
23:19 5.2 °C -1.3 °C 1021.9 hPa Calm   1.6 km/h 63% 0 mm meteobridge W/m2
23:24 5.2 °C -1.3 °C 1022.2 hPa Calm   3.2 km/h 63% 0 mm meteobridge W/m2
23:29 5.2 °C -1.3 °C 1022.2 hPa Calm     63% 0 mm meteobridge W/m2
23:34 5.1 °C -1.4 °C 1021.9 hPa Calm   1.6 km/h 63% 0 mm meteobridge W/m2
23:39 5.1 °C -1.6 °C 1021.9 hPa Calm     62% 0 mm meteobridge W/m2
23:44 5.1 °C -1.6 °C 1022.2 hPa Calm     62% 0 mm meteobridge W/m2
23:49 5.1 °C -1.6 °C 1022.2 hPa Calm     62% 0 mm meteobridge W/m2
23:54 5.1 °C -1.4 °C 1022.2 hPa Calm   3.2 km/h 63% 0 mm meteobridge W/m2
23:59 4.9 °C -1.6 °C 1022.2 hPa Calm     63% 0 mm meteobridge W/m2
Juneau County Weather
Compliments of Weather Underground - 2.5 mb